User: anonymous   Login
Location: Unspecified
(0.0000°N, 0.0000°E)
Time: 06:49:04
(UTC+00:00)
Language:

ONEWEB-0214 - Orbit

View from above orbital plane
View from above orbital plane
View from above satellite
View from above satellite

Ground track
Ground track

The orbit is defined by the following mean orbital elements,

1 48788U          26145.57174719 +.00000000 +00000-0 +13043-3 0 00001
2 48788  87.9002 263.6856 0002120  91.4826 268.6547 13.15547660    00
Epoch (UTC): 25 May 2026 13:43:18
Eccentricity: 0.0002120
inclination: 87.9002°
perigee height: 1200 km
apogee height: 1203 km
right ascension of ascending node: 263.6856°
argument of perigee: 91.4826°
revolutions per day: 13.15547660
mean anomaly at epoch: 268.6547°

The dashed part of the orbit path shows where the satellite is in the earth's shadow,  

DLR